Mt. Pocono, PA

9:23 AM EST on December 12, 2019 (GMT -0500)
Pocono Mountains Municipal

Weather History for KMPO - September, 2019

Change the Weather History Date:

Tuesday, September 24, 2019

  Actual Average Record
Temperature  
Mean Temperature 55 °F 56 °F  
Max Temperature 66 °F 64 °F 85 °F (2010)
Min Temperature 44 °F 47 °F 22 °F (1963)
Degree Days  
Heating Degree Days 10 10  
Month to date heating degree days 99 139  
Since 1 July heating degree days 140 202  
Cooling Degree Days 0 0  
Month to date cooling degree days 25 13  
Year to date cooling degree days 343 309  
Growing Degree Days 5 (Base 50)    
Moisture  
Dew Point 52 °F    
Average Humidity 82    
Maximum Humidity 100    
Minimum Humidity 56    
Precipitation  
Precipitation 0.00 in 0.20 in 2.15 in (1946)
Month to date precipitation 1.08 4.12  
Year to date precipitation 36.01 35.10  
Sea Level Pressure  
Sea Level Pressure 29.85 in    
Wind  
Wind Speed 12 mph ()    
Max Wind Speed 29 mph    
Max Gust Speed 37 mph    
Visibility 10.0 miles    
Events      
T = Trace of Precipitation, MM = Missing Value Source: Averaged Metar Reports

Daily Weather History Graph

Daily Weather History Graph

Search for Another Location

Airport or City:

Astronomy

Sep. 24, 2019 Rise Set
Actual Time 6:50 AM EDT 6:55 PM EDT
Civil Twilight 6:23 AM EDT 7:23 PM EDT
Nautical Twilight 5:51 AM EDT 7:55 PM EDT
Astronomical Twilight 5:18 AM EDT 8:27 PM EDT
Moon 1:29 AM EDT (9/24) 4:42 PM EDT (9/24)
Length of Visible Light 12h 59m
Length of Day
12h 04m
Waning Crescent, 23% of the Moon is Illuminated
Sep 24
Waning Crescent
Sep 28
New
Oct 5
First Quarter
Oct 13
Full
Oct 21
Last Quarter

Hourly Weather History & Observations

Time (EDT) Temp. Dew Point Humidity Pressure Visibility Wind Dir Wind Speed Gust Speed Precip Events Conditions
12:53 AM 59.0 °F 59.0 °F 100% 29.81 in 10.0 mi WNW 11.5 mph - N/A   Clear
1:53 AM 59.0 °F 57.9 °F 96% 29.80 in 10.0 mi West 15.0 mph 23.0 mph N/A   Clear
2:53 AM 57.9 °F 57.0 °F 97% 29.78 in 10.0 mi WNW 16.1 mph - N/A   Clear
3:53 AM 55.9 °F 54.0 °F 93% 29.79 in 10.0 mi West 12.7 mph - N/A   Clear
4:53 AM 55.0 °F 53.1 °F 93% 29.79 in 10.0 mi WNW 15.0 mph - N/A   Clear
5:53 AM 54.0 °F 53.1 °F 97% 29.81 in 10.0 mi West 11.5 mph - N/A   Clear
6:53 AM 54.0 °F 54.0 °F 100% 29.82 in 10.0 mi West 8.1 mph - N/A   Scattered Clouds
7:03 AM 55.0 °F 55.0 °F 100% 29.84 in 10.0 mi West 10.4 mph - N/A   Mostly Cloudy
7:33 AM 55.9 °F 55.0 °F 97% 29.84 in 10.0 mi West 15.0 mph 21.9 mph N/A   Scattered Clouds
7:53 AM 55.9 °F 55.0 °F 97% 29.82 in 10.0 mi WNW 17.3 mph 25.3 mph N/A   Clear
8:53 AM 57.0 °F 54.0 °F 89% 29.83 in 10.0 mi WNW 18.4 mph 26.5 mph N/A   Scattered Clouds
9:53 AM 60.1 °F 52.0 °F 75% 29.84 in 10.0 mi WNW 19.6 mph 31.1 mph N/A   Partly Cloudy
10:50 AM 60.8 °F 53.6 °F 77% 29.86 in 10.0 mi WNW 23.0 mph 27.6 mph N/A   Mostly Cloudy
10:53 AM 60.1 °F 53.1 °F 78% 29.85 in 10.0 mi WNW 20.7 mph 27.6 mph N/A   Mostly Cloudy
11:04 AM 61.0 °F 53.1 °F 75% 29.87 in 10.0 mi WNW 21.9 mph 28.8 mph N/A   Scattered Clouds
11:53 AM 61.0 °F 52.0 °F 72% 29.87 in 10.0 mi WNW 16.1 mph 27.6 mph N/A   Mostly Cloudy
12:53 PM 64.0 °F 51.1 °F 63% 29.86 in 10.0 mi WNW 16.1 mph 25.3 mph N/A   Partly Cloudy
1:53 PM 64.9 °F 51.1 °F 61% 29.85 in 10.0 mi WNW 13.8 mph 25.3 mph N/A   Partly Cloudy
2:53 PM 64.9 °F 48.9 °F 56% 29.85 in 10.0 mi WNW 15.0 mph 26.5 mph N/A   Partly Cloudy
3:53 PM 64.9 °F 48.9 °F 56% 29.84 in 10.0 mi NW 15.0 mph - N/A   Scattered Clouds
4:53 PM 64.0 °F 48.9 °F 58% 29.86 in 10.0 mi WNW 15.0 mph - N/A   Partly Cloudy
5:53 PM 63.0 °F 48.0 °F 58% 29.87 in 10.0 mi WNW 15.0 mph - N/A   Clear
6:53 PM 60.1 °F 48.0 °F 64% 29.88 in 10.0 mi NW 9.2 mph - N/A   Clear
7:53 PM 57.0 °F 48.0 °F 72% 29.89 in 10.0 mi NNW 5.8 mph - N/A   Clear
8:53 PM 54.0 °F 48.0 °F 80% 29.92 in 10.0 mi Calm Calm - N/A   Clear
10:53 PM 48.0 °F 48.0 °F 100% 29.94 in 10.0 mi Calm Calm - N/A   Clear
11:53 PM 46.0 °F 46.0 °F 100% 29.93 in 10.0 mi Calm Calm - N/A   Clear